Regional Weather Roundup
Issued by NWS Charleston, SC

Current Version | Previous Version | Graphics & Text | Print | Product List | Glossary On
Versions: 1 2 3 4 5 6 7 8 9 10 11 12 13 14 15 16 17 18 19 20 21 22 23 24 25 26 27 28 29 30 31 32 33 34 35 36 37 38 39 40 41 42 43 44 45 46 47 48 49 50
000
ASUS42 KCHS 070113
RWRCHS

REGIONAL WEATHER ROUNDUP
NATIONAL WEATHER SERVICE CHARLESTON SC
900 PM EDT FRI MAY 06 2016

NOTE: "FAIR" INDICATES FEW OR NO CLOUDS BELOW 12,000 FEET WITH NO
SIGNIFICANT WEATHER AND/OR OBSTRUCTIONS TO VISIBILITY.

NOT ALL STATIONS ARE QUALITY CONTROLLED. USE DATA WITH CAUTION...
ESPECIALLY DEWPOINT OBSERVATIONS.

SCZ027-030-031-034>040-042>050-070200-
...SOUTHEAST SOUTH CAROLINA...

CITY           SKY/WX    TMP DP  RH WIND       PRES   REMARKS
N CHARLESTON   MOCLDY    63  49  60 W8        29.86R
WATERFRONT PRK   N/A     66  48  52 NW5       29.82R
MOUNT PLEASANT FAIR      64  48  55 NW6       29.85R
JOHNS ISLAND   FAIR      61  54  77 W7        29.86R
PINOPOLIS        N/A     68  48  49 NW8       29.77R
MONCKS CORNER  LGT RAIN  57  45  62 W3        29.85R
SUMMERVILLE    MOCLDY    61  52  72 W5        29.87R
BEAUFORT MCAS  HVY RAIN  58  52  80 N14G23    29.89R
BEAUFORT ARPT  LGT RAIN  64  45  48 N21G29    29.88R
HILTON HEAD IS CLEAR     63  48  59 CALM      29.87R
WALTERBORO     LGT RAIN  59  57  94 S6        29.89R
ALLENDALE      LGT RAIN  59  55  88 VRB3      29.89R

...SOUTHERN MIDLANDS AND PEE DEE...

CITY           SKY/WX    TMP DP  RH WIND       PRES   REMARKS
GEORGETOWN     MOCLDY    61  48  63 W7        29.84R
KINGSTREE      FAIR      57  50  77 CALM      29.83R
ORANGEBURG     PTCLDY    55  52  89 CALM      29.86R
BARNWELL       FAIR      63  52  67 CALM      29.87R
AIKEN          FAIR      57  46  67 CALM      29.90R
MANNING        FAIR      59  50  72 SW3       29.84R
COLUMBIA       PTCLDY    61  50  67 W5        29.85R
SUMTER         CLEAR     60  52  75 W6        29.83R
FLORENCE       PTCLDY    62  49  62 CALM      29.83R
MYRTLE BEACH   MOCLDY    63  46  55 NE5       29.84R
N MYRTLE BEACH MOCLDY    60  53  77 CALM      29.82R

$$

GAZ063-065-086>088-099>101-113>116-118-119-134>141-150-070200-
...SOUTHEAST GEORGIA...

CITY           SKY/WX    TMP DP  RH WIND       PRES   REMARKS
SAVANNAH ARPT  TSTM      62  51  67 NW15G31   29.88R
HUNTER AAF     PTCLDY    63  50  62 SW2       29.84R
FORT STEWART   CLEAR     64  48  54 CALM      29.85R
STATESBORO     CLOUDY    66  52  59 NW5       29.87R
SYLVANIA       PTCLDY    62  57  83 CALM      29.88R
CLAXTON        FAIR      59  54  83 SW3       29.88R

...CSRA...CENTRAL AND FAR SOUTHEAST GEORGIA...

CITY           SKY/WX    TMP DP  RH WIND       PRES   REMARKS
THOMSON        MOCLDY    60  54  79 CALM      29.92R
AUGUSTA-BUSH   PTCLDY    59  49  69 CALM      29.86R
AUGUSTA-DANIEL CLEAR     66  44  45 W3        29.87R
SWAINSBORO     FAIR      59  48  67 CALM      29.89R
VIDALIA        CLEAR     63  46  55 W3        29.88R
EASTMAN        FAIR      62  46  56 CALM      29.92S
HAZLEHURST     FAIR      62  52  71 CALM      29.88R
ALMA           CLEAR     59  47  64 CALM      29.89R
WAYCROSS       CLEAR     62  48  60 CALM      29.89R
JESUP          FAIR      66  52  59 NW3       29.88R
BAXLEY         FAIR      64  48  55 CALM      29.88R
BRUNSWICK      CLEAR     68  54  60 CALM      29.88R
SAINT SIMONS   CLEAR     65  52  62 W3        29.87R

$$

SCZ027-028-034-036>038-045-046-048>050-GAZ119-141-070200-
...LAKE AND SUPPLEMENTAL COASTAL OBSERVATIONS...

STATION/POSITION TIME  TEMP    WIND        PRES    WAVE   SWELL
                       AIR SEA DIR/SP/G            HT/PER HT/PER/DIR
                 (UTC) (F)     (DEG/KT/KT) (MB)    (FT/S) (FT/S/D)
WINYAH BAY       NOT AVBL
LAKE MURRAY      0000   65      CALM  /  3 1009.8R
ACE BASIN NERRS  NOT AVBL
FORT PULASKI     0000   69 71              1010.7R
SAPELO ISLAND    0000   71     270/  7     1011.0R

$$

ANZ835-935-AMZ111-154-330-350-352-354-370-450-454-472-070200-
...C-MAN AND BUOY OBSERVATIONS...

STATION/POSITION TIME  TEMP    WIND        PRES    WAVE   SWELL
                       AIR SEA DIR/SP/G            HT/PER HT/PER/DIR
                 (UTC) (F)     (DEG/KT/KT) (MB)    (FT/S) (FT/S/D)
BUOY 41004       0050   70 73  310/ 14/ 21 1009.5R   3/ 4   2/ 8
BUOY 41008       NOT AVBL
FOLLY BEACH CMAN 0000   65     280/  5/  8 1010.2R
CAPERS NEARSHORE 0008   68 70  310/ 12/ 16 1009.2R
FRIPP NEARSHORE  0008   68 69  310/  8/ 12 1009.7R


STATION/POSITION TIME  TEMP    WIND        PRES    WAVE   SWELL
                       AIR SEA DIR/SP/G            HT/PER HT/PER/DIR
                 (UTC) (F)     (DEG/KT/KT) (MB)    (FT/S) (FT/S/D)
5E ST. MARYS GA  0021      71                N/A     1/10
FRYING PAN BUOY  0000   67 72  270/ 12/ 16 1008.6R
BUOY 41025       0050   63 74  280/ 10/ 12 1008.4R   5/10   5/110/10
CAPE LOOKOUT NC  0000   63     290/  9/ 11 1007.8R
BUOY 41002       0050   69 73  270/ 10/ 14 1009.7R   7/ 9   7/320/ 9
BUOY 41010       0020   70 79  300/ 10/ 14 1011.1R
ST AUGUSTINE FL  0100   66 71   80/  4/  5 1013.0R


$$




USA.gov is the U.S. government's official web portal to all federal, state and local government web resources and services.